Location: Asheville, NC
(35.6000°N, 82.5500°W)
Time: 16:24:28
(UTC-05:00)

KAITUO 1B - Pass Details

Date: 06 January 2018
Orbit: 500 x 521 km, 97.5° (Epoch: 18 January)

Event Time Altitude Azimuth Distance (km) Brightness Sun altitude
Rises 05:56:53 0° 30° (NNE) 2,618 ? -20.5°
Reaches altitude 10° 05:59:29 10° 49° (NE) 1,723 ? -20.0°
Maximum altitude 06:02:07 18° 95° (E) 1,277 ? -19.5°
Drops below altitude 10° 06:04:43 10° 140° (SE) 1,706 ? -19.0°
Sets 06:07:16 0° 159° (SSE) 2,581 ? -18.5°
